Weather History for Trinidad, CO

Change the Weather History Date:

Tuesday, August 27, 2013

  Actual Average Record
Temperature  
Mean Temperature 79 °F 70 °F  
Max Temperature 94 °F 85 °F 95 °F (1953)
Min Temperature 64 °F 56 °F 44 °F (1992)
Degree Days  
Heating Degree Days 0 0  
Month to date heating degree days 5 0  
Since 1 June heating degree days 26 42  
Since 1 July heating degree days 5 3  
Cooling Degree Days 14 6  
Month to date cooling degree days 227 187  
Year to date cooling degree days 874 622  
Since 1 June cooling degree days 811 594  
Growing Degree Days 28 (Base 50)    
Moisture  
Dew Point 46 °F    
Average Humidity 35    
Maximum Humidity 56    
Minimum Humidity 14    
Precipitation  
Precipitation 0.00 in 0.06 in 0.86 in (1993)
Month to date precipitation 1.92 2.00  
Year to date precipitation 7.31 10.23  
Sea Level Pressure  
Sea Level Pressure 29.90 in    
Wind  
Wind Speed 8 mph (SW)    
Max Wind Speed 20 mph    
Max Gust Speed 23 mph    
Visibility 10 miles    
Events      
T = Trace of Precipitation, MM = Missing Value Source: NWS Daily Summary

Daily Weather History Graph

Daily Weather History Graph

Search for Another Location

Airport:

Trip Planner

Search our weather history database for the weather conditions in past years. The results will help you decide how hot, cold, wet, or windy it might be!

Date:

Astronomy

Aug. 27, 2013 Rise Set
Actual Time 6:23 AM MDT 7:32 PM MDT
Civil Twilight 5:57 AM MDT 7:59 PM MDT
Nautical Twilight 5:24 AM MDT 8:31 PM MDT
Astronomical Twilight 4:51 AM MDT 9:04 PM MDT
Moon 11:37 PM MDT (8/27) 1:14 PM MDT (8/27)
Length of Visible Light 14h 02m
Length of Day
13h 08m
Waning Gibbous, 56% of the Moon is Illuminated
Aug 27
Waning Gibbous
Aug 28
Last Quarter
Sep 5
New
Sep 12
First Quarter
Sep 19
Full

Hourly Weather History & Observations

Time (MDT) Temp. Dew Point Humidity Pressure Visibility Wind Dir Wind Speed Gust Speed Precip Events Conditions
12:54 AM 71.1 °F 46.0 °F 41% 29.91 in 10.0 mi WSW 8.1 mph - N/A   Clear
1:54 AM 70.0 °F 46.0 °F 42% 29.89 in 10.0 mi NNE 4.6 mph - N/A   Clear
2:54 AM 68.0 °F 45.0 °F 43% 29.90 in 10.0 mi Calm Calm - N/A   Clear
3:54 AM 66.0 °F 48.0 °F 52% 29.91 in 10.0 mi West 6.9 mph - N/A   Clear
4:54 AM 66.0 °F 48.9 °F 54% 29.92 in 10.0 mi West 9.2 mph - N/A   Clear
5:54 AM 66.9 °F 48.9 °F 52% 29.95 in 10.0 mi West 12.7 mph - N/A   Clear
6:54 AM 64.9 °F 48.9 °F 56% 29.97 in 10.0 mi WSW 15.0 mph - N/A   Clear
7:54 AM 69.1 °F 50.0 °F 51% 29.98 in 10.0 mi WSW 15.0 mph - N/A   Clear
8:54 AM 73.9 °F 50.0 °F 43% 29.96 in 10.0 mi WSW 16.1 mph - N/A   Clear
9:54 AM 79.0 °F 50.0 °F 36% 29.95 in 10.0 mi WSW 8.1 mph - N/A   Clear
10:54 AM 82.9 °F 50.0 °F 32% 29.94 in 10.0 mi Variable 4.6 mph - N/A   Clear
11:54 AM 86.0 °F 50.0 °F 29% 29.92 in 10.0 mi Variable 3.5 mph - N/A   Clear
12:54 PM 87.1 °F 48.9 °F 27% 29.90 in 10.0 mi SSE 5.8 mph - N/A   Clear
1:54 PM 89.1 °F 48.9 °F 25% 29.88 in 10.0 mi Variable 6.9 mph - N/A   Clear
2:54 PM 91.0 °F 45.0 °F 20% 29.85 in 10.0 mi Calm Calm - N/A   Clear
3:54 PM 90.0 °F 44.1 °F 20% 29.85 in 10.0 mi Variable 3.5 mph - N/A   Partly Cloudy
4:54 PM 89.1 °F 43.0 °F 20% 29.84 in 10.0 mi Calm Calm - N/A   Clear
5:54 PM 90.0 °F 34.0 °F 14% 29.83 in 10.0 mi East 4.6 mph - N/A   Clear
6:54 PM 84.0 °F 44.1 °F 25% 29.85 in 10.0 mi South 11.5 mph - N/A   Clear
7:54 PM 80.1 °F 44.1 °F 28% 29.86 in 10.0 mi SSW 10.4 mph - N/A   Clear
8:54 PM 75.0 °F 44.1 °F 33% 29.87 in 10.0 mi WSW 8.1 mph - N/A   Clear
9:54 PM 78.1 °F 43.0 °F 29% 29.86 in 10.0 mi SW 9.2 mph - N/A   Clear
10:54 PM 73.0 °F 44.1 °F 35% 29.87 in 10.0 mi SW 6.9 mph - N/A   Clear
11:54 PM 72.0 °F 45.0 °F 38% 29.87 in 10.0 mi SW 12.7 mph - N/A   Clear